Wind_Speed
54 55 55 55 55 54 54 55 54 53 52 51 51 51 53 53 52 52 51 51 50 50 49 48 48 47 45 45 43 43 43 43 44 44 43 44 45 46
52 52 53 53 53 52 52 52 51 51 50 50 50 49 50 51 52 52 51 49 49 49 48 48 47 46 45 45 44 44 43 43 43 43 43 43 45 47
50 50 49 50 50 50 51 51 49 48 47 47 47 47 48 49 50 50 50 49 48 48 48 47 46 46 45 44 44 43 42 43 43 43 42 44 46 46
48 48 47 48 49 49 48 49 47 46 47 47 46 46 46 47 47 48 47 47 47 47 47 46 46 46 45 43 44 43 42 43 43 42 42 44 44 45
47 45 44 46 46 46 47 47 46 45 45 46 45 45 44 45 45 46 47 48 46 46 45 45 45 45 44 45 44 42 42 42 43 42 42 43 43 44
44 43 43 44 44 44 45 46 45 43 43 43 43 43 43 43 43 44 45 45 45 46 44 44 45 44 44 45 43 42 41 41 42 42 42 43 43 45
40 40 40 41 41 42 44 44 44 42 42 42 42 41 41 41 41 42 43 43 43 43 43 43 43 43 44 43 41 41 41 40 40 41 42 43 43 44
37 38 38 39 40 41 43 43 43 41 40 41 41 41 40 40 40 40 40 41 41 40 40 39 40 40 41 39 39 39 39 39 39 40 40 42 42 42
34 35 35 36 38 40 40 40 40 40 39 40 39 39 39 39 38 37 38 39 38 38 38 38 39 38 37 38 38 37 37 38 38 39 40 41 40 40
32 33 33 33 35 36 37 37 37 38 37 37 37 38 38 38 38 36 36 36 36 37 37 36 36 36 35 36 36 35 36 37 37 38 38 39 38 39
29 30 29 31 33 35 35 35 36 37 36 35 34 35 35 35 36 35 35 35 33 33 34 34 34 33 32 32 33 34 35 35 35 36 36 36 37 38
26 27 26 28 30 32 34 35 35 36 35 34 34 33 34 34 34 33 33 33 32 32 32 32 32 30 29 30 30 31 31 32 33 34 35 36 35 36
24 24 24 27 29 30 31 32 32 34 34 33 32 32 32 32 32 32 32 32 32 32 32 30 29 28 29 29 29 29 30 31 32 32 33 33 33 34
21 22 23 24 26 27 28 29 30 32 31 31 31 31 31 31 32 32 31 31 31 30 30 29 27 26 26 27 27 27 28 29 29 30 30 30 31 32
18 19 19 21 23 24 25 26 28 29 30 30 30 29 29 29 30 30 30 29 29 29 28 27 25 25 25 26 25 26 26 27 28 28 28 28 29 30
15 16 16 18 20 20 21 23 25 26 27 28 28 28 28 27 27 28 28 28 28 27 26 25 25 24 24 25 24 24 25 25 25 25 26 26 27 26
14 15 16 18 19 20 21 22 24 25 26 26 27 27 26 26 25 25 25 26 25 25 24 24 23 22 22 22 23 23 23 22 22 22 23 23 23 23
13 14 16 18 19 21 22 23 24 24 25 25 25 26 26 24 23 23 23 24 24 23 23 22 21 21 21 20 20 20 21 21 20 20 20 21 21 21
12 13 15 17 19 20 21 22 23 23 24 24 24 25 25 24 23 23 23 23 22 21 22 21 21 20 19 19 18 17 17 17 17 17 18 18 18 18
11 13 15 17 18 19 20 21 21 22 22 22 23 24 24 23 22 22 23 23 21 20 19 18 18 17 16 15 14 14 14 14 15 15 16 16 16 15
11 11 13 16 17 18 19 19 20 20 20 21 21 23 22 22 21 21 21 21 20 18 17 16 15 14 13 12 12 12 13 13 13 13 13 13 13 12
10 10 11 14 16 17 18 18 19 19 19 20 20 20 20 20 20 19 19 18 17 16 15 14 12 12 11 10 10 11 11 12 11 11 10 10 11 11
10 9 10 11 13 15 16 17 19 19 19 19 19 19 18 18 19 19 18 17 16 15 14 13 12 11 10 9 9 9 10 10 9 8 8 9 9 9
Wind_Direction
265 263 261 261 258 256 254 253 253 251 249 248 247 246 246 246 246 246 247 249 250 252 253 255 256 258 263 267 270 273 277 282 285 289 294 295 296 297
266 264 261 258 255 253 251 251 252 249 248 246 244 243 245 245 244 245 246 247 248 249 251 253 255 258 260 264 267 271 275 280 285 289 291 293 296 298
265 264 260 256 253 251 249 248 248 248 247 244 243 244 245 244 243 244 245 247 247 248 250 251 254 256 259 263 266 270 274 279 284 287 289 293 296 298
264 262 259 255 251 249 247 245 245 246 246 245 244 244 244 244 244 244 244 245 246 247 249 250 253 255 259 262 267 270 275 278 282 287 290 294 296 299
263 259 255 253 249 246 244 242 242 244 245 245 244 243 243 244 244 244 243 243 245 247 249 250 252 254 258 262 266 269 274 278 281 285 290 294 295 299
260 256 252 250 246 243 242 240 240 242 244 244 243 243 242 241 243 242 241 242 244 246 248 250 252 254 258 261 265 268 271 275 281 286 290 293 295 300
259 254 251 248 244 241 240 239 239 240 243 243 242 242 240 239 239 240 241 243 243 244 246 249 251 255 258 260 264 269 272 275 280 285 289 293 296 300
256 252 249 245 242 239 240 239 239 239 241 240 240 238 237 237 239 240 242 242 243 245 248 249 251 255 258 261 265 268 272 275 280 286 291 294 296 300
255 250 247 244 241 238 238 238 238 238 238 238 237 236 235 234 235 239 241 242 242 245 248 249 252 257 261 261 263 268 272 275 280 286 292 295 297 299
252 247 245 243 240 238 237 236 235 233 234 234 234 234 233 232 234 239 242 242 243 244 246 249 251 257 259 261 264 269 272 276 282 287 291 295 298 300
248 243 243 241 238 236 234 231 231 231 231 233 233 233 230 231 234 239 241 241 243 245 247 249 251 254 258 263 265 267 272 277 283 287 292 296 298 299
246 243 241 240 236 232 231 230 231 231 231 231 231 231 230 231 234 238 240 241 242 244 248 250 252 254 258 262 264 266 273 279 284 289 294 295 297 300
245 239 237 236 233 230 230 231 231 230 230 231 230 229 229 231 235 236 238 241 242 244 245 248 250 253 258 259 264 269 274 279 285 289 292 293 296 300
243 238 234 231 227 226 228 228 228 227 227 227 228 229 229 231 232 233 236 239 240 242 244 246 248 253 257 261 267 274 278 281 285 288 291 293 297 300
240 234 227 223 219 221 223 222 223 223 223 224 227 227 228 229 229 231 235 238 240 240 240 242 246 251 257 263 268 275 279 282 286 288 290 293 297 300
235 226 220 215 214 216 216 216 217 219 221 224 226 224 226 227 228 230 234 235 235 235 238 242 245 250 255 262 268 276 281 283 285 287 289 294 298 303
227 222 219 218 217 217 215 214 215 217 219 221 221 221 223 226 228 229 231 231 233 237 237 240 245 251 258 264 270 277 281 281 283 288 293 298 301 305
225 222 221 219 220 220 217 216 216 218 219 219 221 222 222 225 228 229 228 228 231 233 234 239 246 253 261 266 272 276 279 281 283 289 296 300 303 307
228 223 219 217 217 218 217 216 217 218 217 218 219 219 221 224 225 227 227 227 228 232 235 239 246 254 262 267 270 275 281 283 287 292 295 301 306 310
227 221 216 214 213 213 212 213 213 215 217 217 217 217 219 221 222 223 224 225 229 231 234 239 246 255 261 265 268 275 281 285 289 293 296 301 308 314
217 216 212 209 208 208 208 210 212 214 215 214 213 213 215 217 217 219 220 223 226 230 236 239 245 252 257 262 267 276 282 286 292 295 297 303 308 315
213 210 208 207 206 206 207 207 208 209 209 208 208 208 210 212 212 213 216 218 223 230 234 236 242 248 250 256 266 277 284 288 290 292 299 308 313 320
209 204 203 202 201 201 201 202 202 203 203 200 198 200 202 203 204 207 210 213 217 224 230 233 238 240 244 251 265 276 285 284 285 296 304 311 315 322
Height
5566 5567 5569 5572 5574 5577 5581 5585 5589 5595 5601 5607 5611 5615 5619 5624 5629 5633 5639 5643 5647 5652 5655 5659 5661 5664 5665 5666 5666 5665 5663 5662 5660 5657 5654 5651 5646 5642
5549 5551 5553 5555 5559 5562 5565 5570 5574 5579 5586 5593 5598 5602 5606 5610 5615 5620 5625 5629 5634 5639 5643 5647 5650 5652 5654 5654 5655 5655 5654 5652 5650 5648 5645 5641 5636 5632
5534 5535 5537 5540 5544 5548 5551 5556 5561 5565 5571 5579 5584 5589 5592 5597 5601 5606 5611 5617 5622 5626 5631 5635 5638 5640 5642 5643 5644 5644 5643 5642 5640 5637 5634 5631 5627 5622
5519 5520 5522 5525 5530 5534 5538 5544 5549 5554 5559 5565 5572 5576 5581 5585 5589 5594 5599 5605 5609 5614 5619 5622 5626 5629 5631 5632 5633 5634 5633 5632 5630 5628 5625 5622 5617 5611
5504 5506 5509 5512 5517 5521 5526 5532 5537 5542 5546 5552 5559 5564 5569 5573 5577 5582 5587 5593 5598 5602 5607 5611 5615 5617 5620 5621 5622 5623 5623 5622 5620 5618 5615 5611 5606 5601
5489 5492 5496 5499 5504 5509 5514 5520 5525 5530 5535 5540 5546 5552 5557 5562 5566 5572 5576 5581 5587 5591 5596 5600 5603 5606 5608 5611 5612 5612 5612 5611 5610 5608 5604 5601 5596 5591
5476 5480 5484 5488 5492 5497 5503 5508 5514 5519 5524 5529 5535 5541 5546 5551 5557 5561 5566 5571 5576 5581 5585 5589 5593 5596 5598 5599 5601 5601 5602 5601 5600 5597 5594 5591 5586 5581
5465 5469 5473 5477 5482 5487 5492 5498 5504 5508 5514 5519 5524 5531 5537 5542 5547 5551 5556 5561 5567 5572 5575 5579 5582 5585 5588 5589 5591 5591 5592 5591 5590 5587 5585 5581 5576 5571
5455 5459 5463 5467 5471 5477 5482 5487 5493 5498 5503 5509 5515 5521 5527 5533 5538 5543 5548 5553 5558 5562 5566 5569 5572 5575 5577 5579 5581 5581 5582 5581 5580 5578 5575 5571 5567 5562
5446 5450 5454 5458 5463 5468 5473 5478 5483 5489 5494 5500 5506 5512 5518 5524 5529 5535 5539 5544 5549 5553 5556 5560 5563 5566 5568 5570 5571 5572 5572 5571 5570 5568 5565 5561 5557 5552
5439 5442 5446 5450 5455 5459 5464 5470 5475 5481 5486 5492 5498 5504 5510 5516 5521 5526 5531 5535 5540 5544 5548 5552 5555 5557 5559 5561 5562 5563 5563 5562 5561 5559 5556 5552 5548 5543
5433 5435 5439 5442 5447 5452 5457 5462 5468 5474 5479 5485 5491 5497 5502 5508 5513 5518 5523 5528 5532 5537 5540 5543 5546 5548 5551 5553 5554 5554 5554 5553 5552 5550 5547 5543 5539 5535
5427 5429 5433 5436 5440 5445 5451 5456 5463 5468 5474 5479 5485 5490 5496 5501 5507 5511 5516 5521 5525 5529 5533 5536 5539 5541 5543 5545 5546 5546 5546 5545 5543 5541 5538 5535 5531 5527
5422 5424 5428 5431 5436 5441 5446 5451 5456 5462 5468 5474 5480 5485 5490 5496 5500 5504 5509 5513 5517 5522 5525 5528 5531 5534 5536 5537 5538 5538 5538 5537 5535 5532 5530 5527 5523 5520
5418 5420 5423 5427 5431 5436 5441 5446 5450 5456 5462 5468 5474 5480 5485 5489 5493 5498 5502 5506 5510 5513 5517 5520 5523 5526 5528 5529 5530 5530 5529 5528 5526 5524 5522 5520 5517 5513
5415 5418 5421 5424 5428 5433 5437 5441 5446 5452 5457 5463 5469 5474 5478 5483 5488 5492 5496 5500 5503 5507 5510 5513 5517 5519 5521 5522 5522 5522 5521 5520 5519 5518 5516 5513 5510 5506
5413 5416 5418 5421 5425 5429 5433 5437 5442 5447 5452 5458 5463 5468 5473 5478 5482 5486 5490 5494 5498 5501 5504 5507 5510 5512 5513 5515 5515 5515 5514 5513 5512 5511 5509 5506 5504 5500
5411 5414 5416 5419 5422 5426 5430 5434 5439 5443 5448 5453 5458 5463 5468 5472 5477 5480 5484 5488 5492 5495 5499 5502 5504 5506 5507 5508 5509 5508 5508 5507 5506 5505 5503 5501 5498 5495
5409 5411 5413 5416 5419 5422 5426 5431 5435 5440 5444 5449 5454 5458 5463 5467 5471 5475 5479 5483 5487 5490 5493 5496 5499 5500 5502 5503 5503 5502 5502 5501 5500 5499 5497 5496 5494 5491
5406 5408 5410 5413 5416 5419 5423 5427 5431 5435 5440 5444 5449 5453 5458 5462 5466 5470 5474 5478 5482 5485 5488 5491 5493 5495 5497 5498 5497 5497 5497 5496 5495 5494 5493 5491 5489 5487
5404 5405 5407 5410 5413 5416 5420 5424 5427 5431 5435 5440 5444 5449 5453 5457 5462 5466 5470 5474 5478 5481 5484 5486 5488 5490 5491 5492 5492 5492 5492 5491 5491 5490 5488 5487 5485 5483
5402 5403 5405 5407 5410 5413 5416 5420 5424 5428 5432 5436 5441 5445 5449 5454 5458 5462 5466 5470 5474 5477 5479 5481 5483 5485 5486 5487 5488 5488 5488 5487 5487 5485 5484 5484 5482 5480
5400 5402 5403 5405 5408 5411 5414 5418 5422 5426 5429 5433 5438 5442 5447 5451 5455 5459 5463 5466 5470 5473 5475 5477 5479 5481 5482 5483 5484 5484 5484 5484 5483 5482 5482 5480 5479 5477